Location: Champs
(48.8539°N, 2.6040°E)
Time: 06:25:31
(UTC+00:00)

Cosmos 1953 - Pass Details

Date: 31 May 2022
Orbit: 533 x 555 km, 82.5° (Epoch: 03 July)

Event Time Altitude Azimuth Distance (km) Brightness Sun altitude
Rises 23:07:43 0° 356° (N) 2,724 7.5 -18.6°
Reaches altitude 10° 23:10:00 10° 3° (N) 1,821 6.2 -18.6°
Maximum altitude 23:13:48 41° 75° (ENE) 794 3.1 -18.7°
Enters shadow 23:15:00 32° 117° (ESE) 946 3.2 -18.8°
